Погода в Погорелке

Россия / Ярославская область     57°31′07″N   38°59′37″E
темп.,
°C
ветер,
м/с
пор.,
м/с
влажн.,
%
обл.,
%
осадки,
мм/ч
давл.,
гПа
погр.,
м
20 января, чт
чт2000:00−6ююз41294100 0.1 1006423
03:00−4ююз51493100 0.1 1004544
06:00−4юз51292100 0.1 1003643
09:00−3ююз41193100 0.1 1002580
12:00−3ю51193100 0.0 1002520
15:00−3ю51292100 0.1 1001617
18:00−3ю51392100 0.0 1000690
21:00−3ю51391100 0.1 999763
21 января, пт
пт2100:00−4ю51390100 0.1 1000661
03:00−6ю51294100 0.6 1000575
06:00−6ююв41194100 0.5 1000470
09:00−7ююв41094100 0.6 1001416
12:00−7юв51194100 0.8 1001471
15:00−6юв51194100 1.6 1000613
18:00−7юв51194100 0.9 1000679
21:00−7юв5109499 1.6 1001551
22 января, сб
сб2200:00−7юв41094100 0.5 1003493
03:00−9вюв41095100 0.6 1004349
06:00−8вюв3895100 0.9 1005429
09:00−8вюв389599 1.4 1008335
12:00−7вюв3994100 0.1 1011430
15:00−6вюв499497 0.3 1013499
18:00−8вюв389597 0.1 1016297
21:00−9в389687 0.2 1019221
23 января, вс
вс2300:00−14в119980 0.1 102219
03:00−16в2210099 0.1 102440
06:00−16в139988 0.1 102658
09:00−18всв13100100 0.1 102945
12:00−11св129496 0.0 1030154
15:00−10св129574 0.1 1031119
18:00−16с1110074 0.0 10349
21:00−18с1110099 0.0 10359
24 января, пн
пн2400:00−19ссв00100100 0.0 10369
03:00−20сз11100100 0.0 10379
06:00−21ссз11100100 0.0 10379
09:00−21зюз00100100 0.0 10379
12:00−12ююв119588 0.0 1036101
15:00−10ю119610 0.0 103435
18:00−17юз1110076 0.0 10349
21:00−19ю21100100 0.0 103314